[[{"header":{"parameterUnit":"m.s-1","parameterCategory":1,"la1":30.2991,"la2":30.254,"lo1":-89.0895,"lo2":-89.0444,"dy":0.0017,"dx":0.0017,"nx":28,"ny":28,"refTime":"2024-05-05T03:00:00:Z","depth":0,"parameterNumber":2,"parameterNumberName":"U-component_of_WINDS"},"data":[0,0,0,0,0,0,0,0,0,0,0,0,0,0,0,0,0,0,0,0,0,0,0,0,0,0,0,0,0,0,0,0,0,0,0,0,0,0,0,0,0,0,0,0,0,0,0,0,0,0,0,0,0,0,0,0,0,0,-0.1711,-0.171,0,-0.166,-0.1659,-0.1658,-0.1611,-0.1611,-0.161,-0.161,-0.1558,-0.1557,-0.1556,0,0,0,0,0,0,0,0,0,0,0,0,0,-0.1768,-0.1767,-0.1711,-0.171,-0.1709,-0.166,-0.1659,-0.1658,-0.1612,-0.1611,-0.161,-0.1609,-0.1558,-0.1557,-0.1556,0,0,0,0,0,0,0,0,0,0,0,0,0,-0.1733,-0.1767,-0.1711,-0.168,-0.1677,-0.166,-0.1659,-0.1658,-0.1612,-0.1611,-0.161,-0.1609,-0.1559,-0.1557,-0.1556,-0.1566,0,0,-0.1552,-0.1552,0,0,0,0,0,0,0,0,-0.1735,-0.1731,-0.1685,-0.1682,-0.1678,-0.1641,-0.166,-0.1627,-0.1612,-0.1636,-0.161,-0.1609,-0.1586,-0.1583,-0.1575,-0.1563,-0.1561,-0.1552,-0.1551,-0.1551,-0.1551,0,0,0,0,0,0,0,-0.1737,-0.1733,-0.169,-0.1685,-0.168,-0.1669,-0.1663,-0.1654,-0.1617,-0.1634,-0.1631,-0.1625,-0.1584,-0.1576,-0.1574,-0.156,-0.1552,-0.1551,-0.155,-0.155,-0.1554,-0.1555,0,0,0,0,0,0,-0.1744,-0.1735,-0.1692,-0.1689,-0.1705,-0.1669,-0.1662,-0.1654,-0.1617,-0.161,-0.1626,-0.1623,-0.1579,-0.1575,-0.1572,-0.1581,-0.1551,-0.155,-0.1549,-0.1554,-0.1555,-0.1556,0,0,0,0,0,0,-0.1746,-0.1741,-0.1694,-0.1711,-0.1704,-0.1669,-0.166,-0.1653,-0.1645,-0.1611,-0.1604,-0.1625,-0.1578,-0.1573,-0.1568,-0.1579,-0.1549,-0.1548,-0.1553,-0.1554,-0.1555,-0.16,0,0,0,0,0,0,-0.1748,-0.1742,-0.1745,-0.1711,-0.1703,-0.1691,-0.1661,-0.1653,-0.1643,-0.1639,-0.1608,-0.1602,-0.1577,-0.157,-0.1566,-0.1576,-0.1547,-0.1551,-0.1553,-0.1555,-0.1597,-0.1603,-0.1607,0,0,0,0,0,-0.175,-0.176,-0.1745,-0.174,-0.1707,-0.1692,-0.1687,-0.1659,-0.1644,-0.1647,-0.1625,-0.1603,-0.1578,-0.157,-0.1565,-0.1575,-0.1551,-0.1553,-0.1555,-0.1595,-0.1601,-0.1607,0,0,0,0,0,0,-0.1795,-0.1755,-0.1738,-0.1737,-0.1718,-0.1684,-0.1687,-0.1666,-0.1651,-0.1648,-0.1613,-0.1607,-0.1605,-0.1589,-0.1581,-0.1583,-0.1561,-0.1562,-0.1593,-0.1599,-0.1604,-0.1608,-0.1546,0,0,0,0,0,-0.1805,-0.1797,-0.1761,-0.1764,-0.1755,-0.1723,-0.1715,-0.1695,-0.1674,-0.1666,-0.1643,-0.1624,-0.1611,-0.1604,-0.1591,-0.1594,-0.1587,-0.1599,-0.1604,-0.1608,-0.161,-0.1611,-0.1616,-0.1562,-0.1562,-0.1562,0,0,-0.1826,-0.1802,-0.1799,-0.1772,-0.1755,-0.1747,-0.1716,-0.1709,-0.1703,-0.1665,-0.1658,-0.1641,-0.1617,-0.1616,-0.1615,-0.1603,-0.1623,-0.1611,-0.1614,-0.1614,-0.1614,-0.1619,-0.1624,-0.1563,-0.1563,-0.1563,0,0,-0.1859,-0.184,-0.1841,-0.1824,-0.1799,-0.1777,-0.1777,-0.1746,-0.1733,-0.1726,-0.1697,-0.1689,-0.1669,-0.1653,-0.1643,-0.167,-0.1649,-0.1667,-0.1693,-0.1695,-0.1699,-0.1703,-0.1713,-0.1718,-0.1669,-0.1669,-0.1669,0,-0.1888,-0.1875,-0.1843,-0.1838,-0.1828,-0.1792,-0.1793,-0.1778,-0.175,-0.1744,-0.1731,-0.1705,-0.1686,-0.1682,-0.1689,-0.1681,-0.168,-0.1671,-0.1701,-0.1704,-0.1707,-0.1717,-0.1721,-0.1671,-0.1671,-0.1671,-0.167,0,-0.1912,-0.1903,-0.1907,-0.188,-0.187,-0.1868,-0.1836,-0.183,-0.181,-0.179,-0.1784,-0.176,-0.1742,-0.1739,-0.172,-0.1732,-0.1726,-0.1707,-0.1685,-0.1715,-0.1724,-0.1728,-0.1674,-0.1674,-0.1673,-0.1672,0,0,-0.1973,-0.193,-0.1931,-0.1919,-0.1889,-0.1882,-0.1878,-0.186,-0.1855,-0.1837,-0.1833,-0.1817,-0.18,-0.1788,-0.1766,-0.1768,-0.1793,-0.1749,-0.1748,-0.1759,-0.1805,-0.182,-0.1825,-0.1778,-0.1779,-0.1779,-0.1808,0,-0.2002,-0.1994,-0.1965,-0.1965,-0.1957,-0.1924,-0.192,-0.1901,-0.1882,-0.1873,-0.1852,-0.1841,-0.1819,-0.1812,-0.1812,-0.179,-0.1802,-0.1787,-0.1775,-0.1775,-0.1783,-0.183,-0.1845,-0.1874,-0.1811,-0.1811,-0.1812,0,-0.2035,-0.2019,-0.2019,-0.1989,-0.1984,-0.1982,-0.1964,-0.1955,-0.1933,-0.1919,-0.1906,-0.1882,-0.1876,-0.1855,-0.1847,-0.1838,-0.1831,-0.182,-0.182,-0.1819,-0.1796,-0.1831,-0.1882,-0.1887,-0.1817,-0.1816,-0.1816,0,-0.2082,-0.206,-0.2057,-0.2047,-0.2012,-0.2011,-0.1996,-0.1973,-0.1965,-0.1949,-0.1943,-0.1926,-0.1917,-0.1905,-0.1878,-0.1864,-0.1873,-0.185,-0.1862,-0.1863,-0.1867,-0.1867,-0.1919,-0.1861,-0.1861,-0.186,-0.186,0,-0.2118,-0.2119,-0.2077,-0.2075,-0.2076,-0.2043,-0.2045,-0.2027,-0.2006,-0.2001,-0.197,-0.1966,-0.1929,-0.192,-0.1899,-0.1896,-0.1892,-0.1881,-0.1876,-0.1885,-0.1886,-0.1881,-0.1878,-0.1862,-0.1861,-0.1861,-0.1861,0,-0.217,-0.2142,-0.2136,-0.2103,-0.2095,-0.2097,-0.2069,-0.2066,-0.2045,-0.2039,-0.2035,-0.2003,-0.1991,-0.1962,-0.1942,-0.1928,-0.1931,-0.192,-0.1939,-0.1936,-0.1951,-0.195,-0.2001,-0.2007,-0.1945,-0.1945,-0.1946,0,-0.2196,-0.2196,-0.2163,-0.2157,-0.2144,-0.2134,-0.2125,-0.2093,-0.2085,-0.206,-0.2061,-0.2046,-0.2033,-0.2016,-0.1991,-0.1976,-0.1965,-0.1984,-0.1963,-0.1972,-0.1967,-0.1967,-0.1968,-0.1989,-0.199,-0.1991,-0.1991,0,-0.2245,-0.2231,-0.2219,-0.2202,-0.2192,-0.2178,-0.2161,-0.2158,-0.2122,-0.2115,-0.2102,-0.2092,-0.2073,-0.2059,-0.204,-0.2025,-0.2003,-0.1998,-0.2,-0.201,-0.2021,-0.2017,-0.1953,-0.1997,-0.1997,-0.1996,-0.1996,-0.1996,-0.2285,-0.2284,-0.2261,-0.2249,-0.2233,-0.2218,-0.2214,-0.2193,-0.2182,-0.2164,-0.2145,-0.2135,-0.2113,-0.2086,-0.2072,-0.2064,-0.2052,-0.2055,-0.2056,-0.2058,-0.2062,-0.2022,-0.206,-0.206,-0.206,-0.2059,-0.2059,0,-0.2333,-0.2317,-0.2306,-0.2284,-0.2275,-0.2254,-0.2235,-0.2228,-0.222,-0.2201,-0.2189,-0.2175,-0.2162,-0.2136,-0.212,-0.2119,-0.2108,-0.2116,-0.2116,-0.2113,-0.2073,-0.2073,-0.2125,-0.2125,-0.2125,-0.2125,-0.2125,-0.2125,-0.2357,-0.2354,-0.2338,-0.2327,-0.231,-0.23,-0.2291,-0.2278,-0.2263,-0.2249,-0.2238,-0.2221,-0.2199,-0.2182,-0.2169,-0.2161,-0.2158,-0.2169,-0.2159,-0.2122,-0.2116,-0.211,-0.211,-0.2168,-0.2168,-0.2199,-0.22,-0.22]},{"header":{"parameterUnit":"m.s-1","parameterCategory":1,"la1":30.2991,"la2":30.254,"lo1":-89.0895,"lo2":-89.0444,"dy":0.0017,"dx":0.0017,"nx":28,"ny":28,"refTime":"2024-05-05T03:00:00:Z","depth":0,"parameterNumber":3,"parameterNumberName":"V-component_of_WINDS"},"data":[0,0,0,0,0,0,0,0,0,0,0,0,0,0,0,0,0,0,0,0,0,0,0,0,0,0,0,0,0,0,0,0,0,0,0,0,0,0,0,0,0,0,0,0,0,0,0,0,0,0,0,0,0,0,0,0,0,0,3.3368,3.3368,0,3.3367,3.3367,3.3367,3.3339,3.3338,3.3337,3.3337,3.3336,3.3337,3.3337,0,0,0,0,0,0,0,0,0,0,0,0,0,3.3345,3.3345,3.3368,3.3368,3.3368,3.3367,3.3367,3.3367,3.3339,3.3338,3.3337,3.3336,3.3336,3.3336,3.3337,0,0,0,0,0,0,0,0,0,0,0,0,0,3.335,3.3345,3.3368,3.3354,3.3352,3.3367,3.3367,3.3367,3.3339,3.3338,3.3337,3.3336,3.3335,3.3336,3.3337,3.3365,0,0,3.334,3.3341,0,0,0,0,0,0,0,0,3.335,3.3351,3.3356,3.3355,3.3353,3.3352,3.3359,3.3366,3.3339,3.3344,3.3337,3.3335,3.3342,3.3342,3.3345,3.3365,3.3365,3.334,3.3341,3.3341,3.3342,0,0,0,0,0,0,0,3.335,3.3351,3.3368,3.3356,3.3354,3.3347,3.3347,3.336,3.3349,3.3344,3.3342,3.3342,3.3341,3.3344,3.3344,3.3365,3.334,3.3341,3.3342,3.3342,3.3408,3.3409,0,0,0,0,0,0,3.3351,3.3351,3.3368,3.3367,3.3349,3.3349,3.3348,3.3353,3.3349,3.3347,3.3343,3.3341,3.3343,3.3343,3.3344,3.3376,3.3341,3.3342,3.3343,3.3407,3.3408,3.3409,0,0,0,0,0,0,3.3351,3.3353,3.3368,3.3359,3.336,3.335,3.3356,3.3354,3.3357,3.3348,3.3346,3.3348,3.3342,3.3343,3.336,3.3375,3.3343,3.3344,3.3405,3.3407,3.3409,3.3439,0,0,0,0,0,0,3.335,3.3353,3.3364,3.3359,3.3361,3.3383,3.3357,3.3355,3.3358,3.3355,3.3352,3.3351,3.3341,3.3359,3.3361,3.3376,3.3344,3.3404,3.3406,3.3408,3.3437,3.3442,3.3446,0,0,0,0,0,3.335,3.3373,3.3364,3.3367,3.3374,3.3384,3.3385,3.3374,3.336,3.337,3.3365,3.3351,3.3374,3.3361,3.3363,3.3379,3.3403,3.3405,3.3408,3.3435,3.3441,3.3446,0,0,0,0,0,0,3.3379,3.3372,3.3363,3.3385,3.3385,3.338,3.3392,3.3381,3.3385,3.3382,3.3368,3.3367,3.3387,3.3385,3.337,3.3405,3.3386,3.3389,3.3405,3.3411,3.3416,3.3415,3.3345,0,0,0,0,0,3.3389,3.3398,3.3391,3.3411,3.3412,3.3402,3.3407,3.3398,3.3398,3.3398,3.3394,3.3394,3.3401,3.3406,3.3413,3.3437,3.3435,3.3449,3.3454,3.3458,3.346,3.3472,3.3477,3.3418,3.3418,3.3418,0,0,3.3407,3.3405,3.3411,3.3417,3.3417,3.3426,3.3403,3.3414,3.3421,3.34,3.3415,3.3412,3.3412,3.3432,3.3441,3.3431,3.3476,3.3461,3.3464,3.3464,3.3475,3.348,3.3485,3.3419,3.3419,3.3419,0,0,3.3446,3.3446,3.3462,3.3462,3.3461,3.3455,3.3459,3.3455,3.3452,3.3467,3.3451,3.3459,3.3472,3.3472,3.3474,3.3513,3.35,3.3516,3.3539,3.3551,3.3556,3.356,3.3572,3.3577,3.3518,3.3519,3.3519,0,3.347,3.3484,3.3472,3.3484,3.3487,3.3468,3.3484,3.3484,3.3486,3.3488,3.3477,3.3492,3.3491,3.3511,3.352,3.3523,3.3526,3.3515,3.3556,3.356,3.3563,3.3575,3.358,3.352,3.352,3.352,3.352,0,3.3512,3.3522,3.3535,3.3537,3.3541,3.3555,3.3545,3.3551,3.3542,3.3536,3.3552,3.355,3.3555,3.3559,3.3551,3.3577,3.3571,3.3558,3.3538,3.3571,3.3582,3.3586,3.3523,3.3522,3.3522,3.3521,0,0,3.3569,3.3564,3.3568,3.3568,3.3567,3.3574,3.3587,3.3592,3.3597,3.3599,3.3609,3.362,3.3608,3.361,3.3602,3.3612,3.3641,3.3598,3.3597,3.3605,3.367,3.3678,3.3684,3.3633,3.3634,3.3635,3.3669,0,3.3605,3.3627,3.3617,3.364,3.3648,3.3631,3.3642,3.3642,3.3637,3.3644,3.3639,3.3646,3.3631,3.3632,3.3641,3.3636,3.3654,3.3634,3.3642,3.3642,3.3641,3.369,3.3699,3.3731,3.3674,3.3674,3.3675,0,3.3651,3.3654,3.3678,3.3673,3.3676,3.3687,3.369,3.3697,3.3696,3.3692,3.3694,3.3683,3.3696,3.3677,3.3693,3.3679,3.3682,3.368,3.3681,3.368,3.3659,3.3688,3.3741,3.3745,3.3682,3.3681,3.3681,0,3.3688,3.3698,3.3714,3.3714,3.371,3.3718,3.3716,3.3715,3.3718,3.3721,3.3723,3.3728,3.373,3.3734,3.3724,3.3711,3.3741,3.3722,3.3737,3.3737,3.3743,3.3742,3.3795,3.3748,3.3748,3.3748,3.3747,0,3.3729,3.3744,3.373,3.3739,3.3755,3.3743,3.3759,3.3756,3.3755,3.3763,3.3749,3.3756,3.3744,3.3751,3.3743,3.3757,3.3759,3.3755,3.3753,3.3756,3.3756,3.3756,3.3753,3.3749,3.3749,3.3748,3.3748,0,3.3772,3.3764,3.3779,3.3774,3.3773,3.3785,3.378,3.3788,3.3783,3.3793,3.3795,3.3786,3.3793,3.3784,3.3791,3.3786,3.3805,3.38,3.3804,3.3802,3.3818,3.3816,3.3871,3.3878,3.3828,3.3828,3.3828,0,3.3798,3.3809,3.3805,3.3809,3.3808,3.3816,3.3819,3.3808,3.3811,3.3811,3.3819,3.3825,3.3829,3.3841,3.3835,3.384,3.3834,3.3853,3.3835,3.3837,3.3833,3.3831,3.3832,3.3857,3.3857,3.3858,3.3858,0,3.3844,3.384,3.3845,3.3848,3.3852,3.3855,3.3856,3.386,3.3849,3.3854,3.3861,3.3864,3.387,3.3875,3.3879,3.3877,3.3865,3.3864,3.3868,3.387,3.3872,3.3869,3.3813,3.3863,3.3862,3.3862,3.3862,3.3861,3.3879,3.3887,3.3885,3.3891,3.3891,3.3892,3.3899,3.3895,3.39,3.3904,3.3898,3.3906,3.3905,3.3908,3.3907,3.3914,3.3905,3.3911,3.3912,3.3913,3.3915,3.3872,3.3915,3.3914,3.3914,3.3914,3.3914,0,3.3923,3.3921,3.3926,3.3928,3.3933,3.3922,3.3923,3.3927,3.3935,3.3935,3.3939,3.3946,3.3952,3.3947,3.3951,3.3957,3.3952,3.3958,3.3957,3.3956,3.3923,3.3918,3.3962,3.3962,3.3962,3.3962,3.3962,3.3962,3.3946,3.3959,3.3954,3.3967,3.3965,3.3973,3.3974,3.3975,3.3975,3.3984,3.3988,3.3985,3.3983,3.3987,3.3991,3.3989,3.3991,3.3999,3.3996,3.3964,3.3959,3.3954,3.395,3.4,3.4,3.4029,3.4029,3.4029]}]]